Retour au catalogue

DELTA 1 DEB

ActifLEO
NORAD 7129·DEBRIS·🇺🇸 United States

Lancé Nov 6, 1973 depuis Vandenberg Space Force Base

Loading…

Prochains Passages (prochaines 24 heures)

TLE

FraisSource: Space-Track

Époque: Sep 14, 2026, 08:12 UTC

1 07129U 73086CT  26257.34198427 -.00000209  00000-0 -18121-2 0  9991
2 07129 102.0162 107.1311 0243935 183.1163 352.7173 12.04471649318082

Suivez DELTA 1 DEB en temps réel avec AllMySat

Download on the App Store